Date,TemperatureHighF,TemperatureAvgF,TemperatureLowF,DewpointHighF,DewpointAvgF,DewpointLowF,HumidityHigh,HumidityAvg,HumidityLow,PressureMaxIn,PressureMinIn,WindSpeedMaxMPH,WindSpeedAvgMPH,GustSpeedMaxMPH,PrecipitationSumIn
2013-5-3,66.8,64.9,59.8,43.3,40.8,36.8,46,41,38,30.33,30.26,15,2,16,0.00
2013-5-4,69.3,49.6,0.0,44.9,31.4,0.0,77,39,20,30.29,30.13,17,3,17,0.00
2013-5-5,70.8,52.4,36.5,41.9,35.3,26.1,89,57,21,30.25,30.10,15,2,15,0.00
2013-5-6,75.3,56.0,39.1,46.7,37.8,23.1,92,58,15,30.17,30.01,13,2,15,0.00
2013-5-7,66.9,49.8,43.3,47.3,43.6,41.0,93,81,42,30.07,30.05,6,1,9,0.00
2013-5-10,71.1,64.7,58.9,61.0,56.4,53.7,86,75,63,29.83,29.80,5,0,5,0.30
2013-5-11,64.5,60.5,56.9,61.5,57.8,54.6,97,91,84,29.80,29.57,9,1,9,0.20
2013-5-12,64.0,57.0,47.6,57.9,44.7,25.0,96,66,34,29.67,29.48,25,5,32,0.00
2013-5-13,50.2,45.9,41.1,34.3,29.4,25.2,74,53,39,29.95,29.67,24,6,25,0.00
2013-5-14,56.0,46.1,35.5,35.1,28.4,18.9,89,54,26,29.96,29.86,21,3,23,0.00
2013-5-15,65.0,47.5,33.2,48.8,36.6,25.9,94,71,26,29.95,29.56,15,2,19,0.15
2013-5-16,74.2,59.7,46.8,52.1,41.7,30.6,96,59,21,29.74,29.49,29,5,31,0.00
2013-5-17,63.1,54.7,48.8,42.7,37.9,31.6,72,55,31,30.13,29.74,25,4,29,0.00
2013-5-18,70.8,56.8,43.2,46.4,40.1,28.5,89,59,23,30.21,30.12,17,2,17,0.00
2013-5-19,56.9,49.5,46.1,52.4,45.1,43.3,94,85,70,30.26,30.11,12,2,12,0.39
2013-5-20,71.1,60.2,52.6,61.0,55.6,50.9,95,85,66,30.11,29.86,18,2,22,0.22
2013-5-21,61.3,55.9,51.1,57.0,53.0,48.0,95,90,84,30.03,29.84,28,5,32,0.44
2013-5-22,58.7,53.8,50.2,55.1,51.3,48.5,95,91,84,29.90,29.81,12,2,12,0.38
2013-5-23,64.2,57.6,51.9,63.0,55.4,50.2,96,93,87,29.84,29.66,8,1,8,0.04
2013-5-24,65.5,58.0,46.8,64.3,53.9,42.2,97,87,66,29.77,29.53,27,5,30,0.58
2013-5-25,47.7,44.7,34.6,44.8,40.3,32.5,93,84,69,29.78,29.65,25,8,30,0.93
2013-5-26,51.7,44.4,36.0,40.4,36.7,33.6,91,75,57,29.97,29.62,29,7,30,0.17
2013-5-27,65.5,51.8,37.8,41.8,35.2,24.8,92,59,24,30.11,29.97,27,4,27,0.00
2013-5-28,72.3,56.1,40.9,46.0,39.7,30.5,89,59,27,30.17,30.06,14,1,15,0.00
2013-5-29,56.5,53.1,49.5,54.2,49.6,40.2,95,88,66,30.09,29.92,12,2,14,0.15
2013-5-30,83.6,68.6,55.4,63.3,58.8,54.0,96,75,41,29.96,29.90,21,3,24,0.00
2013-5-31,89.0,73.7,59.8,67.3,61.4,54.8,94,69,32,29.99,29.82,22,1,22,0.00
2013-6-1,90.3,75.6,62.0,67.8,62.5,56.5,93,68,34,29.85,29.73,13,1,17,0.00
2013-6-2,88.8,72.3,64.8,69.4,64.9,60.2,95,81,44,29.74,29.55,31,1,34,0.52
2013-6-3,76.3,67.6,59.8,64.1,57.4,43.4,96,73,34,29.73,29.64,23,2,25,0.01
2013-6-4,64.2,57.2,49.6,50.6,42.7,38.2,82,59,42,30.00,29.73,26,5,29,0.00
2013-6-5,70.3,59.6,48.0,45.8,39.9,30.4,87,52,25,30.09,29.99,19,2,21,0.00
2013-6-6,71.8,61.6,53.3,53.2,45.6,36.4,76,57,35,30.11,30.01,17,2,17,0.00
2013-6-7,58.4,55.0,54.2,52.8,51.5,48.7,92,88,70,30.02,29.97,11,1,11,0.06
2013-6-8,67.1,64.1,58.4,57.7,55.9,54.2,87,75,68,29.91,29.68,22,4,25,0.43
2013-6-9,75.4,64.5,55.6,56.6,53.3,48.0,92,69,40,30.08,29.91,20,3,21,0.00
2013-6-10,68.8,60.9,53.8,58.8,54.4,50.9,93,80,64,30.11,29.94,10,1,10,0.16
2013-6-11,59.0,55.8,54.2,54.3,53.2,52.2,95,91,80,29.94,29.50,19,5,21,0.73
2013-6-12,65.2,59.5,54.7,54.3,52.3,50.3,95,78,59,29.73,29.47,29,4,29,0.00
2013-6-13,68.3,59.7,53.2,56.8,52.9,48.9,94,79,55,29.72,29.62,10,0,11,0.14
2013-6-14,75.3,63.3,53.9,57.6,52.1,42.4,96,71,32,29.69,29.60,13,1,17,0.01
2013-6-15,73.7,64.1,53.1,53.5,44.7,32.8,81,53,27,29.83,29.69,23,3,23,0.00
2013-6-16,73.7,60.6,50.1,59.4,52.9,45.5,94,77,42,29.84,29.63,11,1,12,0.02
2013-6-17,77.7,66.2,56.7,60.8,56.9,51.3,93,74,41,29.80,29.66,21,2,26,0.00
2013-6-18,63.4,59.6,55.1,57.5,54.3,49.9,93,83,66,29.90,29.79,12,0,14,0.03
2013-6-19,70.8,61.2,49.4,53.3,44.7,36.3,93,59,31,30.07,29.85,19,3,19,0.00
2013-6-20,76.5,62.7,48.2,57.7,46.6,38.9,87,59,27,30.17,30.07,14,1,14,0.00
2013-6-21,81.1,66.3,53.3,59.9,51.5,45.8,88,63,31,30.14,30.10,14,2,19,0.00
2013-6-22,80.7,68.3,58.6,67.4,60.0,52.9,94,76,56,30.13,30.01,14,1,14,0.02
2013-6-23,84.0,70.2,64.2,73.9,66.0,62.4,95,87,67,30.05,29.86,8,0,11,0.59
2013-6-27,69.9,69.4,68.6,65.9,65.6,65.2,89,88,86,29.71,29.70,0,0,0,0.00
2013-6-28,63.9,61.3,58.7,61.7,59.1,56.4,94,92,88,29.52,29.43,27,8,27,1.04
2013-6-29,82.2,68.9,63.1,71.0,64.7,61.3,96,88,56,29.60,29.43,11,1,14,0.35
2013-6-30,82.6,71.2,63.2,72.1,66.0,62.0,96,85,61,29.83,29.60,10,0,13,0.07
2013-7-1,77.2,71.2,66.6,69.7,67.9,65.4,96,90,72,29.98,29.83,9,0,10,0.20
2013-7-2,71.6,64.8,60.7,70.3,62.8,57.7,96,93,86,30.13,29.97,23,4,23,0.78
2013-7-3,84.9,71.4,60.7,73.4,66.3,59.5,96,85,59,30.13,30.01,10,0,10,0.01
2013-7-4,89.7,78.5,68.8,74.1,70.4,67.2,96,78,53,30.09,29.97,17,0,18,0.00
2013-7-5,90.1,80.2,71.3,73.5,69.8,67.2,91,72,49,30.04,29.92,15,1,20,0.00
2013-7-6,84.5,77.4,70.8,71.6,68.5,64.6,94,75,55,29.97,29.88,15,2,18,0.02
2013-7-7,83.4,76.6,68.8,72.2,67.8,63.0,91,75,51,29.93,29.82,11,0,12,0.00
2013-7-8,78.1,72.8,70.4,71.4,69.0,67.7,94,88,73,29.90,29.83,11,1,11,0.46
2013-7-12,79.8,74.1,65.2,64.0,59.8,54.8,84,62,44,30.13,30.04,12,1,12,0.00
2013-7-13,79.6,70.1,61.5,67.7,62.0,55.7,93,77,46,30.23,30.13,9,0,10,0.00
2013-7-14,84.7,75.3,66.6,73.2,68.5,64.5,94,80,59,30.21,30.11,11,1,12,0.00
2013-7-15,89.0,78.3,68.3,70.8,66.8,61.4,92,71,41,30.12,30.02,13,1,15,0.00
2013-7-16,87.8,81.1,73.5,68.2,66.2,64.1,79,62,47,30.08,30.04,11,1,12,0.00
2013-7-17,90.1,78.7,67.8,74.3,68.6,64.0,94,73,45,30.09,29.89,22,1,31,0.26
2013-7-18,82.6,72.6,69.6,72.6,69.7,68.4,96,91,67,29.93,29.87,10,0,12,0.07
2013-7-19,88.6,82.2,74.9,73.9,70.2,66.8,82,68,54,29.64,29.58,28,2,30,0.00
2013-7-20,83.6,74.3,66.9,70.6,67.2,63.5,92,80,56,29.71,29.54,28,1,33,0.08
2013-7-21,76.7,67.4,62.7,63.5,60.6,57.1,91,79,57,29.86,29.71,7,0,9,0.00
2013-7-22,72.7,70.4,67.1,66.5,64.8,60.2,87,82,78,29.95,29.82,11,3,12,0.00
2013-7-23,74.4,66.3,62.3,68.7,63.7,60.2,96,91,79,29.83,29.45,16,2,16,1.43
2013-7-24,66.9,62.8,56.3,65.7,58.5,46.6,96,86,67,29.91,29.50,14,3,19,0.00
2013-7-25,70.9,61.2,50.8,60.0,52.3,45.7,87,73,52,30.04,29.91,11,1,15,0.00
2013-7-26,74.9,66.3,60.9,66.0,60.3,57.0,94,82,62,30.01,29.85,14,1,14,0.09
2013-7-27,82.2,70.2,62.1,65.0,58.7,44.4,91,69,33,29.93,29.88,15,2,16,0.00
2013-7-28,77.7,68.2,61.5,67.1,63.4,59.8,96,85,63,29.93,29.88,17,3,18,0.03
2013-7-29,78.8,68.2,63.9,67.0,64.6,61.2,96,89,64,29.96,29.87,21,1,28,0.90
2013-7-30,76.1,67.0,58.9,62.7,56.7,49.2,96,73,41,30.01,29.94,17,2,19,0.00
2013-7-31,81.1,67.9,57.3,62.6,57.4,50.7,92,71,39,30.05,29.94,12,0,12,0.00
2013-8-1,79.4,66.6,58.6,64.6,60.7,56.3,94,83,48,29.95,29.77,12,1,17,0.38
2013-8-2,78.1,68.6,61.8,66.5,60.6,50.0,96,78,39,29.76,29.66,20,1,21,0.16
2013-8-3,75.4,65.6,58.1,61.2,56.7,51.7,95,75,44,29.75,29.66,19,3,25,0.12
2013-8-4,71.1,63.9,57.2,57.5,54.8,51.3,92,73,55,29.80,29.70,18,4,21,0.00
2013-8-5,70.6,61.7,54.2,53.5,46.2,32.5,85,60,26,29.97,29.78,25,6,30,0.00
2013-8-6,75.8,62.2,49.8,57.8,51.3,45.8,91,70,39,30.06,29.96,10,1,0,0.00
2013-8-7,77.0,64.6,53.5,60.1,55.1,50.0,92,73,41,30.10,30.00,12,1,15,0.00
2013-8-8,81.2,68.2,62.6,72.5,63.7,57.3,96,86,64,30.01,29.89,8,0,0,0.11
2013-8-9,72.8,70.4,67.3,70.9,68.8,65.9,96,95,89,29.91,29.65,5,0,0,0.53
2013-8-10,74.6,69.1,57.6,66.6,55.5,43.8,96,66,34,29.93,29.68,23,4,26,0.01
2013-8-11,74.6,63.2,52.8,57.3,52.8,47.1,93,71,41,29.98,29.90,14,1,15,0.00
2013-8-12,77.6,64.5,56.2,60.8,55.3,51.2,93,74,41,29.93,29.82,14,1,16,0.00
2013-8-13,66.8,64.8,61.5,65.1,62.9,58.2,96,94,89,29.75,29.59,6,0,0,0.52
2013-8-14,69.4,64.8,59.6,63.6,54.7,49.2,96,71,53,29.76,29.56,25,7,28,0.01
2013-8-15,71.6,65.5,56.3,56.8,51.9,46.7,89,63,45,30.01,29.91,16,3,18,0.00
2013-8-16,76.8,63.5,52.3,59.8,53.6,47.6,94,73,41,30.10,30.00,13,1,14,0.00
2013-8-17,76.5,65.9,57.3,59.0,54.7,48.1,91,70,39,30.19,30.10,16,2,17,0.00
2013-8-18,76.0,65.0,55.3,64.7,58.1,51.3,92,79,57,30.19,29.98,6,1,0,0.00
2013-8-19,80.3,68.6,59.0,63.1,58.5,54.3,91,72,44,29.98,29.84,16,2,22,0.00
2013-8-20,82.0,70.8,62.3,65.0,60.6,56.6,90,72,45,30.00,29.88,15,1,15,0.00
2013-8-21,84.7,71.4,61.3,67.6,62.4,56.5,92,75,42,30.05,29.91,13,0,16,0.00
2013-8-22,84.9,73.2,62.3,67.9,63.2,57.0,93,73,42,29.93,29.70,15,2,19,0.00
2013-8-23,74.6,68.9,58.9,64.4,53.4,42.4,81,59,35,30.07,29.72,17,4,20,0.00
2013-8-24,76.8,62.8,51.0,54.8,49.5,41.4,89,65,31,30.24,30.07,10,0,0,0.00
2013-8-25,77.7,64.0,51.6,58.9,53.3,47.9,92,71,38,30.28,30.06,11,1,12,0.00
2013-8-26,75.3,66.9,60.9,67.5,63.2,56.8,96,88,70,30.07,29.77,11,0,13,0.14
2013-8-27,85.3,72.3,65.5,69.0,65.6,63.4,94,80,53,29.82,29.75,5,0,0,0.00
2013-8-28,81.4,70.5,63.2,69.8,64.8,61.1,95,83,56,29.93,29.77,18,1,24,0.40
2013-8-29,66.8,64.8,61.8,64.8,62.1,59.8,96,91,83,30.00,29.88,11,2,12,0.01
2013-8-30,81.1,69.8,61.5,69.3,63.5,59.8,95,82,57,29.94,29.69,12,1,14,0.00
2013-8-31,77.0,71.1,67.1,71.2,67.8,64.5,96,90,72,29.73,29.67,5,0,0,2.79
2013-9-1,80.9,73.4,68.6,71.5,69.2,67.4,97,87,67,29.80,29.68,11,1,0,0.08
2013-9-2,70.8,68.7,66.8,68.8,66.7,64.8,96,93,90,29.78,29.65,15,4,15,1.77
2013-9-3,71.8,67.3,63.5,66.4,63.6,58.0,96,88,72,29.70,29.62,11,0,13,0.00
2013-9-4,74.6,66.9,60.1,61.1,56.5,49.6,89,71,45,29.81,29.69,22,4,23,0.00
2013-9-5,64.5,59.5,48.5,58.4,46.8,33.3,93,66,32,30.07,29.77,19,3,25,0.03
2013-9-6,66.6,53.9,42.9,50.3,43.5,36.4,92,70,38,30.16,29.98,15,1,17,0.00
2013-9-7,68.4,58.9,51.4,56.8,51.0,45.3,86,75,51,29.98,29.74,12,0,12,0.00
2013-9-8,63.2,57.9,47.4,55.9,46.5,38.1,91,67,46,30.00,29.66,23,4,28,0.02
2013-9-9,67.1,54.4,42.5,51.8,45.2,39.9,94,73,41,30.12,30.00,10,1,13,0.00
2013-9-10,66.0,57.9,49.8,63.2,55.6,47.9,96,92,84,30.03,29.93,4,0,0,0.17
2013-9-11,84.0,71.9,63.9,75.1,67.7,62.7,96,87,62,29.96,29.80,28,0,32,0.46
2013-9-12,75.1,68.5,65.2,71.2,66.5,64.0,96,93,83,29.89,29.57,24,1,24,0.56
2013-9-13,69.8,65.3,62.1,64.3,62.3,56.1,97,90,69,29.57,29.51,15,2,19,0.15
2013-9-15,66.6,60.8,56.2,54.2,50.4,44.9,86,70,46,30.04,29.93,14,1,16,0.00
2013-9-16,59.5,54.1,43.8,54.1,46.3,32.5,93,76,52,30.19,29.89,20,4,24,0.04
2013-9-17,62.0,49.8,40.1,48.0,40.1,34.8,88,71,46,30.33,30.19,13,0,13,0.00
2013-9-18,68.6,54.5,44.2,52.1,45.8,36.9,91,75,35,30.22,30.03,10,1,0,0.00
2013-9-19,71.5,58.4,49.8,58.4,50.9,45.7,92,77,52,30.04,29.93,7,0,0,0.00
2013-9-20,72.5,59.7,49.8,60.4,53.3,47.1,92,81,57,30.01,29.90,10,1,0,0.00
2013-9-21,72.1,60.6,52.5,62.1,56.2,50.8,96,86,57,29.92,29.59,13,1,15,0.01
2013-9-22,66.6,60.5,50.4,63.7,52.8,40.6,95,77,53,29.74,29.48,19,4,26,0.73
2013-9-23,53.6,49.7,47.3,42.0,39.1,36.8,75,67,56,29.90,29.73,27,6,28,0.00
2013-9-24,58.6,51.5,47.3,45.9,40.7,36.7,79,67,49,29.88,29.75,28,4,29,0.00
2013-9-25,60.5,54.5,47.4,47.7,45.0,42.3,91,71,59,29.91,29.76,20,4,21,0.00
2013-9-26,64.8,52.9,41.9,50.9,45.5,39.5,92,77,55,30.06,29.91,11,0,12,0.00
2013-9-27,66.8,56.6,51.6,55.0,50.2,47.6,92,80,58,30.18,30.06,6,0,0,0.00
2013-9-28,68.1,57.0,48.9,54.5,49.9,46.3,92,79,51,30.26,30.17,5,0,0,0.00
2013-9-29,66.0,57.3,49.9,53.3,50.6,47.7,93,79,57,30.15,30.02,4,0,0,0.01
2013-9-30,66.9,54.1,45.1,54.9,49.2,43.8,98,85,54,30.04,29.89,9,1,0,0.00
2013-10-1,73.9,59.0,48.2,57.4,51.1,46.1,94,78,41,29.90,29.75,14,1,16,0.01
2013-10-2,74.4,62.2,52.2,59.4,54.9,50.3,95,79,53,29.84,29.71,17,2,20,0.00
2013-10-3,68.9,58.5,53.6,54.8,50.1,43.9,85,75,41,30.00,29.84,16,0,19,0.00